sat.trackr.live / text

‹ back to catalog

STARLINK-35485

NORAD 66251 · 2025-245T

PAYLOAD ACTIVE UNKNOWN

§ Identity

Operator
Country
US
Launch date
2025-10-29
Launch site
AFETR
Launch vehicle
Mass (kg)
RCS (m²)

Purposes: comms

External: N2YO · Heavens-Above · Gunter

§ Orbital elements

Epoch: 2026-05-25T02:53:10.610016Z

Period
94.01 min
Inclination
53.1612°
Eccentricity
0.0001325
Mean motion
15.31709341 rev/d
Perigee alt
469.8 km
Apogee alt
471.6 km
Semi-major
6,848.8 km
B*
6.6258e-4
RAAN
288.5054°
Arg perigee
90.3937°
Mean anomaly
269.7216°
Rev number
3,274

§ Raw data

STARLINK-354851 66251U 25245T   26145.12026169  .00020257  00000+0  66258-3 0  99982 66251  53.1612 288.5054 0001325  90.3937 269.7216 15.31709341 32747

JSON: /api/v1/satellites/66251 · /tle

For live sub-satellite position, see the globe view (requires WebGL).

§ Visibility from observer

Set your observer location to see the next 7 days of passes ≥ 10°. The values pass through the URL so the page stays shareable.

No JS? Fill the form by hand. The geolocation button needs JavaScript.